User: anonymous   Login
Location: Newark
(49.1000°N, 0.4667°W)
Time: 12:53:33
(UTC+00:00)
Language:

XW-2B - Orbit

View from above orbital plane
View from above orbital plane
View from above satellite
View from above satellite

Ground track
Ground track

The orbit data is extracted from the following two-line orbital elements,

1 40911U 15049N   20189.22758765  .00000317  00000-0  19842-4 0  9995
2 40911  97.4755 190.6898 0012711 308.4439 180.3585 15.16256757265163
Epoch (UTC): 07 July 2020 05:27:43
Eccentricity: 0.0012711
inclination: 97.4755°
perigee height: 508 km
apogee height: 526 km
right ascension of ascending node: 190.6898°
argument of perigee: 308.4439°
revolutions per day: 15.16256757
mean anomaly at epoch: 180.3585°
orbit number at epoch: 26516

The dashed part of the orbit path shows where the satellite is in the earth's shadow,  

DLR